Year,Month,Day,Hour,Minute,Value (Times are PST for windspeed in km/hr)
2015,11,16,00,00,3.00
2015,11,16,00,01,2.30
2015,11,16,00,02,2.10
2015,11,16,00,03,2.00
2015,11,16,00,04,1.90
2015,11,16,00,05,2.30
2015,11,16,00,06,2.50
2015,11,16,00,07,2.10
2015,11,16,00,08,2.60
2015,11,16,00,09,2.30
2015,11,16,00,10,2.40
2015,11,16,00,11,1.60
2015,11,16,00,12,0.80
2015,11,16,00,13,0.80
2015,11,16,00,14,1.60
2015,11,16,00,15,1.40
2015,11,16,00,16,0.10
2015,11,16,00,17,0.20
2015,11,16,00,18,0.70
2015,11,16,00,19,0.40
2015,11,16,00,20,0.70
2015,11,16,00,21,0.50
2015,11,16,00,22,0.40
2015,11,16,00,23,0.00
2015,11,16,00,24,0.50
2015,11,16,00,25,0.10
2015,11,16,00,26,0.00
2015,11,16,00,27,0.00
2015,11,16,00,28,1.30
2015,11,16,00,29,2.30
2015,11,16,00,30,2.20
2015,11,16,00,31,2.00
2015,11,16,00,32,1.90
2015,11,16,00,33,2.80
2015,11,16,00,34,2.30
2015,11,16,00,35,1.80
2015,11,16,00,36,2.90
2015,11,16,00,37,3.30
2015,11,16,00,38,1.60
2015,11,16,00,39,1.00
2015,11,16,00,40,2.70
2015,11,16,00,41,2.20
2015,11,16,00,42,2.30
2015,11,16,00,43,2.00
2015,11,16,00,44,1.70
2015,11,16,00,45,2.00
2015,11,16,00,46,2.20
2015,11,16,00,47,2.10
2015,11,16,00,48,1.90
2015,11,16,00,49,2.00
2015,11,16,00,50,3.00
2015,11,16,00,51,3.00
2015,11,16,00,52,2.70
2015,11,16,00,53,2.60
2015,11,16,00,54,1.70
2015,11,16,00,55,1.40
2015,11,16,00,56,2.40
2015,11,16,00,57,2.40
2015,11,16,00,58,2.60
2015,11,16,00,59,2.50
2015,11,16,01,00,3.50
2015,11,16,01,01,2.80
2015,11,16,01,02,3.30
2015,11,16,01,03,3.00
2015,11,16,01,04,3.20
2015,11,16,01,05,2.90
2015,11,16,01,06,2.30
2015,11,16,01,07,3.00
2015,11,16,01,08,2.80
2015,11,16,01,09,1.80
2015,11,16,01,10,2.70
2015,11,16,01,11,2.00
2015,11,16,01,12,2.90
2015,11,16,01,13,2.10
2015,11,16,01,14,2.10
2015,11,16,01,15,2.40
2015,11,16,01,16,2.30
2015,11,16,01,17,2.50
2015,11,16,01,18,2.00
2015,11,16,01,19,1.60
2015,11,16,01,20,1.50
2015,11,16,01,21,2.10
2015,11,16,01,22,2.90
2015,11,16,01,23,3.10
2015,11,16,01,24,2.60
2015,11,16,01,25,1.80
2015,11,16,01,26,1.50
2015,11,16,01,27,1.00
2015,11,16,01,28,0.90
2015,11,16,01,29,1.50
2015,11,16,01,30,2.40
2015,11,16,01,31,2.10
2015,11,16,01,32,1.90
2015,11,16,01,33,1.70
2015,11,16,01,34,1.90
2015,11,16,01,35,1.60
2015,11,16,01,36,2.30
2015,11,16,01,37,2.10
2015,11,16,01,38,1.70
2015,11,16,01,39,1.70
2015,11,16,01,40,2.50
2015,11,16,01,41,2.30
2015,11,16,01,42,2.10
2015,11,16,01,43,1.90
2015,11,16,01,44,2.00
2015,11,16,01,45,2.20
2015,11,16,01,46,2.40
2015,11,16,01,47,2.20
2015,11,16,01,48,1.90
2015,11,16,01,49,2.00
2015,11,16,01,50,1.90
2015,11,16,01,51,1.60
2015,11,16,01,52,1.90
2015,11,16,01,53,2.20
2015,11,16,01,54,2.40
2015,11,16,01,55,2.20
2015,11,16,01,56,2.40
2015,11,16,01,57,1.90
2015,11,16,01,58,1.50
2015,11,16,01,59,2.30
2015,11,16,02,00,3.00
2015,11,16,02,01,1.90
2015,11,16,02,02,1.70
2015,11,16,02,03,2.10
2015,11,16,02,04,2.30
2015,11,16,02,05,2.10
2015,11,16,02,06,3.00
2015,11,16,02,07,2.90
2015,11,16,02,08,2.40
2015,11,16,02,09,1.70
2015,11,16,02,10,1.90
2015,11,16,02,11,2.10
2015,11,16,02,12,2.60
2015,11,16,02,13,2.70
2015,11,16,02,14,2.00
2015,11,16,02,15,2.40
2015,11,16,02,16,3.00
2015,11,16,02,17,1.40
2015,11,16,02,18,2.00
2015,11,16,02,19,1.70
2015,11,16,02,20,1.50
2015,11,16,02,21,1.60
2015,11,16,02,22,2.10
2015,11,16,02,23,1.90
2015,11,16,02,24,2.30
2015,11,16,02,25,3.50
2015,11,16,02,26,3.90
2015,11,16,02,27,3.60
2015,11,16,02,28,3.30
2015,11,16,02,29,3.00
2015,11,16,02,30,2.10
2015,11,16,02,31,1.30
2015,11,16,02,32,0.70
2015,11,16,02,33,0.70
2015,11,16,02,34,0.00
2015,11,16,02,35,0.00
2015,11,16,02,36,0.00
2015,11,16,02,37,0.00
2015,11,16,02,38,0.00
2015,11,16,02,39,1.20
2015,11,16,02,40,2.50
2015,11,16,02,41,2.30
2015,11,16,02,42,1.60
2015,11,16,02,43,1.30
2015,11,16,02,44,1.20
2015,11,16,02,45,1.60
2015,11,16,02,46,1.10
2015,11,16,02,47,1.60
2015,11,16,02,48,2.40
2015,11,16,02,49,2.20
2015,11,16,02,50,1.70
2015,11,16,02,51,2.20
2015,11,16,02,52,2.60
2015,11,16,02,53,2.00
2015,11,16,02,54,1.30
2015,11,16,02,55,2.00
2015,11,16,02,56,2.40
2015,11,16,02,57,2.60
2015,11,16,02,58,3.40
2015,11,16,02,59,2.60
2015,11,16,03,00,2.40
2015,11,16,03,01,1.90
2015,11,16,03,02,1.90
2015,11,16,03,03,2.30
2015,11,16,03,04,3.00
2015,11,16,03,05,2.50
2015,11,16,03,06,1.10
2015,11,16,03,07,0.50
2015,11,16,03,08,0.50
2015,11,16,03,09,0.10
2015,11,16,03,10,0.50
2015,11,16,03,11,2.00
2015,11,16,03,12,2.60
2015,11,16,03,13,2.60
2015,11,16,03,14,2.30
2015,11,16,03,15,3.40
2015,11,16,03,16,2.30
2015,11,16,03,17,1.60
2015,11,16,03,18,1.70
2015,11,16,03,19,1.60
2015,11,16,03,20,1.40
2015,11,16,03,21,1.40
2015,11,16,03,22,2.30
2015,11,16,03,23,2.00
2015,11,16,03,24,2.10
2015,11,16,03,25,2.40
2015,11,16,03,26,1.50
2015,11,16,03,27,1.10
2015,11,16,03,28,0.70
2015,11,16,03,29,0.80
2015,11,16,03,30,0.70
2015,11,16,03,31,1.00
2015,11,16,03,32,0.90
2015,11,16,03,33,1.10
2015,11,16,03,34,1.70
2015,11,16,03,35,1.60
2015,11,16,03,36,1.40
2015,11,16,03,37,1.70
2015,11,16,03,38,2.00
2015,11,16,03,39,2.30
2015,11,16,03,40,1.10
2015,11,16,03,41,1.00
2015,11,16,03,42,1.00
2015,11,16,03,43,1.20
2015,11,16,03,44,0.90
2015,11,16,03,45,0.90
2015,11,16,03,46,1.30
2015,11,16,03,47,1.90
2015,11,16,03,48,1.80
2015,11,16,03,49,1.80
2015,11,16,03,50,1.20
2015,11,16,03,51,0.80
2015,11,16,03,52,0.90
2015,11,16,03,53,0.20
2015,11,16,03,54,0.00
2015,11,16,03,55,0.40
2015,11,16,03,56,0.70
2015,11,16,03,57,1.10
2015,11,16,03,58,2.60
2015,11,16,03,59,3.10
2015,11,16,04,00,2.10
2015,11,16,04,01,1.40
2015,11,16,04,02,1.40
2015,11,16,04,03,0.50
2015,11,16,04,04,0.90
2015,11,16,04,05,1.30
2015,11,16,04,06,1.80
2015,11,16,04,07,1.80
2015,11,16,04,08,1.80
2015,11,16,04,09,1.70
2015,11,16,04,10,1.00
2015,11,16,04,11,0.80
2015,11,16,04,12,0.70
2015,11,16,04,13,0.60
2015,11,16,04,14,1.10
2015,11,16,04,15,0.90
2015,11,16,04,16,0.00
2015,11,16,04,17,0.00
2015,11,16,04,18,0.00
2015,11,16,04,19,0.00
2015,11,16,04,20,1.20
2015,11,16,04,21,1.80
2015,11,16,04,22,1.50
2015,11,16,04,23,1.00
2015,11,16,04,24,1.70
2015,11,16,04,25,2.30
2015,11,16,04,26,2.30
2015,11,16,04,27,2.10
2015,11,16,04,28,1.40
2015,11,16,04,29,0.80
2015,11,16,04,30,0.00
2015,11,16,04,31,0.00
2015,11,16,04,32,0.00
2015,11,16,04,33,0.00
2015,11,16,04,34,0.00
2015,11,16,04,35,0.00
2015,11,16,04,36,0.00
2015,11,16,04,37,1.40
2015,11,16,04,38,0.70
2015,11,16,04,39,0.00
2015,11,16,04,40,0.00
2015,11,16,04,41,0.00
2015,11,16,04,42,0.00
2015,11,16,04,43,0.00
2015,11,16,04,44,0.00
2015,11,16,04,45,0.00
2015,11,16,04,46,0.00
2015,11,16,04,47,0.00
2015,11,16,04,48,0.00
2015,11,16,04,49,0.00
2015,11,16,04,50,0.00
2015,11,16,04,51,0.00
2015,11,16,04,52,0.10
2015,11,16,04,53,0.10
2015,11,16,04,54,0.30
2015,11,16,04,55,0.70
2015,11,16,04,56,1.00
2015,11,16,04,57,1.10
2015,11,16,04,58,2.70
2015,11,16,04,59,2.00
2015,11,16,05,00,1.20
2015,11,16,05,01,2.30
2015,11,16,05,02,1.90
2015,11,16,05,03,1.90
2015,11,16,05,04,1.60
2015,11,16,05,05,1.10
2015,11,16,05,06,0.70
2015,11,16,05,07,0.70
2015,11,16,05,08,0.40
2015,11,16,05,09,0.00
2015,11,16,05,10,0.00
2015,11,16,05,11,0.00
2015,11,16,05,12,0.70
2015,11,16,05,13,2.00
2015,11,16,05,14,2.10
2015,11,16,05,15,1.70
2015,11,16,05,16,1.70
2015,11,16,05,17,1.60
2015,11,16,05,18,1.40
2015,11,16,05,19,0.90
2015,11,16,05,20,1.30
2015,11,16,05,21,1.80
2015,11,16,05,22,1.80
2015,11,16,05,23,1.80
2015,11,16,05,24,1.30
2015,11,16,05,25,1.60
2015,11,16,05,26,1.80
2015,11,16,05,27,1.60
2015,11,16,05,28,0.80
2015,11,16,05,29,1.60
2015,11,16,05,30,1.00
2015,11,16,05,31,0.70
2015,11,16,05,32,0.50
2015,11,16,05,33,1.50
2015,11,16,05,34,1.90
2015,11,16,05,35,1.60
2015,11,16,05,36,0.50
2015,11,16,05,37,0.20
2015,11,16,05,38,1.90
2015,11,16,05,39,1.80
2015,11,16,05,40,2.00
2015,11,16,05,41,2.10
2015,11,16,05,42,1.10
2015,11,16,05,43,2.70
2015,11,16,05,44,1.60
2015,11,16,05,45,1.60
2015,11,16,05,46,2.10
2015,11,16,05,47,0.70
2015,11,16,05,48,1.10
2015,11,16,05,49,1.00
2015,11,16,05,50,0.80
2015,11,16,05,51,1.50
2015,11,16,05,52,0.30
2015,11,16,05,53,2.30
2015,11,16,05,54,0.50
2015,11,16,05,55,0.40
2015,11,16,05,56,1.30
2015,11,16,05,57,1.40
2015,11,16,05,58,1.60
2015,11,16,05,59,2.00
2015,11,16,06,00,2.40
2015,11,16,06,01,2.00
2015,11,16,06,02,2.40
2015,11,16,06,03,0.20
2015,11,16,06,04,0.20
2015,11,16,06,05,1.10
2015,11,16,06,06,1.00
2015,11,16,06,07,1.30
2015,11,16,06,08,2.00
2015,11,16,06,09,2.20
2015,11,16,06,10,1.40
2015,11,16,06,11,2.10
2015,11,16,06,12,0.30
2015,11,16,06,13,1.90
2015,11,16,06,14,0.20
2015,11,16,06,15,0.50
2015,11,16,06,16,3.60
2015,11,16,06,17,2.10
2015,11,16,06,18,4.50
2015,11,16,06,19,8.00
2015,11,16,06,20,4.00
2015,11,16,06,21,8.00
2015,11,16,06,22,4.70
2015,11,16,06,23,2.40
2015,11,16,06,24,5.70
2015,11,16,06,25,6.00
2015,11,16,06,26,8.40
2015,11,16,06,27,4.50
2015,11,16,06,28,6.00
2015,11,16,06,29,10.40
2015,11,16,06,30,5.80
2015,11,16,06,31,4.10
2015,11,16,06,32,7.80
2015,11,16,06,33,7.00
2015,11,16,06,34,8.80
2015,11,16,06,35,7.70
2015,11,16,06,36,5.70
2015,11,16,06,37,10.90
2015,11,16,06,38,5.90
2015,11,16,06,39,6.40
2015,11,16,06,40,4.40
2015,11,16,06,41,3.20
2015,11,16,06,42,8.70
2015,11,16,06,43,9.00
2015,11,16,06,44,10.10
2015,11,16,06,45,8.00
2015,11,16,06,46,13.20
2015,11,16,06,47,6.90
2015,11,16,06,48,13.20
2015,11,16,06,49,10.30
2015,11,16,06,50,6.80
2015,11,16,06,51,10.70
2015,11,16,06,52,9.70
2015,11,16,06,53,9.80
2015,11,16,06,54,12.10
2015,11,16,06,55,7.60
2015,11,16,06,56,11.70
2015,11,16,06,57,8.70
2015,11,16,06,58,8.60
2015,11,16,06,59,9.10
2015,11,16,07,00,6.90
2015,11,16,07,01,7.90
2015,11,16,07,02,6.20
2015,11,16,07,03,11.40
2015,11,16,07,04,7.80
2015,11,16,07,05,6.70
2015,11,16,07,06,8.70
2015,11,16,07,07,9.10
2015,11,16,07,08,6.70
2015,11,16,07,09,12.00
2015,11,16,07,10,12.70
2015,11,16,07,11,8.20
2015,11,16,07,12,8.80
2015,11,16,07,13,11.60
2015,11,16,07,14,9.20
2015,11,16,07,15,9.60
2015,11,16,07,16,7.60
2015,11,16,07,17,7.10
2015,11,16,07,18,12.60
2015,11,16,07,19,13.80
2015,11,16,07,20,11.80
2015,11,16,07,21,10.00
2015,11,16,07,22,7.70
2015,11,16,07,23,7.90
2015,11,16,07,24,5.00
2015,11,16,07,25,5.60
2015,11,16,07,26,8.10
2015,11,16,07,27,5.10
2015,11,16,07,28,8.10
2015,11,16,07,29,6.90
2015,11,16,07,30,9.50
2015,11,16,07,31,13.80
2015,11,16,07,32,8.20
2015,11,16,07,33,6.70
2015,11,16,07,34,6.60
2015,11,16,07,35,6.20
2015,11,16,07,36,5.50
2015,11,16,07,37,7.30
2015,11,16,07,38,8.30
2015,11,16,07,39,12.20
2015,11,16,07,40,10.00
2015,11,16,07,41,11.90
2015,11,16,07,42,12.60
2015,11,16,07,43,9.40
2015,11,16,07,44,3.90
2015,11,16,07,45,5.10
2015,11,16,07,46,10.30
2015,11,16,07,47,9.20
2015,11,16,07,48,8.70
2015,11,16,07,49,13.40
2015,11,16,07,50,13.60
2015,11,16,07,51,8.10
2015,11,16,07,52,12.30
2015,11,16,07,53,7.30
2015,11,16,07,54,2.40
2015,11,16,07,55,7.90
2015,11,16,07,56,6.90
2015,11,16,07,57,11.30
2015,11,16,07,58,11.30
2015,11,16,07,59,15.30
2015,11,16,08,00,9.90
2015,11,16,08,01,9.00
2015,11,16,08,02,6.40
2015,11,16,08,03,9.20
2015,11,16,08,04,9.00
2015,11,16,08,05,11.90
2015,11,16,08,06,10.10
2015,11,16,08,07,16.50
2015,11,16,08,08,10.90
2015,11,16,08,09,12.80
2015,11,16,08,10,12.40
2015,11,16,08,11,15.10
2015,11,16,08,12,14.70
2015,11,16,08,13,12.50
2015,11,16,08,14,15.60
2015,11,16,08,15,12.60
2015,11,16,08,16,15.30
2015,11,16,08,17,16.70
2015,11,16,08,18,6.90
2015,11,16,08,19,15.40
2015,11,16,08,20,11.50
2015,11,16,08,21,12.40
2015,11,16,08,22,25.90
2015,11,16,08,23,19.40
2015,11,16,08,24,16.30
2015,11,16,08,25,20.30
2015,11,16,08,26,21.10
2015,11,16,08,27,17.90
2015,11,16,08,28,17.50
2015,11,16,08,29,25.60
2015,11,16,08,30,23.40
2015,11,16,08,31,23.80
2015,11,16,08,32,23.60
2015,11,16,08,33,16.50
2015,11,16,08,34,15.10
2015,11,16,08,35,18.80
2015,11,16,08,36,20.40
2015,11,16,08,37,24.90
2015,11,16,08,38,18.10
2015,11,16,08,39,24.30
2015,11,16,08,40,16.30
2015,11,16,08,41,18.10
2015,11,16,08,42,16.30
2015,11,16,08,43,12.40
2015,11,16,08,44,13.10
2015,11,16,08,45,9.90
2015,11,16,08,46,15.80
2015,11,16,08,47,16.40
2015,11,16,08,48,14.20
2015,11,16,08,49,8.90
2015,11,16,08,50,13.40
2015,11,16,08,51,18.20
2015,11,16,08,52,16.90
2015,11,16,08,53,14.40
2015,11,16,08,54,17.10
2015,11,16,08,55,12.70
2015,11,16,08,56,11.50
2015,11,16,08,57,15.70
2015,11,16,08,58,16.70
2015,11,16,08,59,13.80
2015,11,16,09,00,14.90
2015,11,16,09,01,10.60
2015,11,16,09,02,8.50
2015,11,16,09,03,16.70
2015,11,16,09,04,15.60
2015,11,16,09,05,18.80
2015,11,16,09,06,21.90
2015,11,16,09,07,13.20
2015,11,16,09,08,14.70
2015,11,16,09,09,17.20
2015,11,16,09,10,11.70
2015,11,16,09,11,12.60
2015,11,16,09,12,21.20
2015,11,16,09,13,18.80
2015,11,16,09,14,15.60
2015,11,16,09,15,13.80
2015,11,16,09,16,18.80
2015,11,16,09,17,19.40
2015,11,16,09,18,13.50
2015,11,16,09,19,17.20
2015,11,16,09,20,11.90
2015,11,16,09,21,17.70
2015,11,16,09,22,15.30
2015,11,16,09,23,15.60
2015,11,16,09,24,14.70
2015,11,16,09,25,17.20
2015,11,16,09,26,10.10
2015,11,16,09,27,18.00
2015,11,16,09,28,12.50
2015,11,16,09,29,16.60
2015,11,16,09,30,16.50
2015,11,16,09,31,18.40
2015,11,16,09,32,13.80
2015,11,16,09,33,21.50
2015,11,16,09,34,20.70
2015,11,16,09,35,16.50
2015,11,16,09,36,18.40
2015,11,16,09,37,13.10
2015,11,16,09,38,11.90
2015,11,16,09,39,11.30
2015,11,16,09,40,10.80
2015,11,16,09,41,13.20
2015,11,16,09,42,11.40
2015,11,16,09,43,18.80
2015,11,16,09,44,14.10
2015,11,16,09,45,16.50
2015,11,16,09,46,11.40
2015,11,16,09,47,20.70
2015,11,16,09,48,27.20
2015,11,16,09,49,11.30
2015,11,16,09,50,15.70
2015,11,16,09,51,13.90
2015,11,16,09,52,18.80
2015,11,16,09,53,16.80
2015,11,16,09,54,11.30
2015,11,16,09,55,9.00
2015,11,16,09,56,12.00
2015,11,16,09,57,23.80
2015,11,16,09,58,23.70
2015,11,16,09,59,15.50
2015,11,16,10,00,18.20
2015,11,16,10,01,22.40
2015,11,16,10,02,23.80
2015,11,16,10,03,25.50
2015,11,16,10,04,18.30
2015,11,16,10,05,10.00
2015,11,16,10,06,20.70
2015,11,16,10,07,20.70
2015,11,16,10,08,22.00
2015,11,16,10,09,14.60
2015,11,16,10,10,16.80
2015,11,16,10,11,19.00
2015,11,16,10,12,10.60
2015,11,16,10,13,19.10
2015,11,16,10,14,24.60
2015,11,16,10,15,18.30
2015,11,16,10,16,16.20
2015,11,16,10,17,10.40
2015,11,16,10,18,15.10
2015,11,16,10,19,17.80
2015,11,16,10,20,16.60
2015,11,16,10,21,13.60
2015,11,16,10,22,22.00
2015,11,16,10,23,23.20
2015,11,16,10,24,21.50
2015,11,16,10,25,16.90
2015,11,16,10,26,20.60
2015,11,16,10,27,30.40
2015,11,16,10,28,20.00
2015,11,16,10,29,17.30
2015,11,16,10,30,15.90
2015,11,16,10,31,19.10
2015,11,16,10,32,14.80
2015,11,16,10,33,20.70
2015,11,16,10,34,24.50
2015,11,16,10,35,27.40
2015,11,16,10,36,22.00
2015,11,16,10,37,21.30
2015,11,16,10,38,20.40
2015,11,16,10,39,20.60
2015,11,16,10,40,16.50
2015,11,16,10,41,22.10
2015,11,16,10,42,18.10
2015,11,16,10,43,16.90
2015,11,16,10,44,14.50
2015,11,16,10,45,16.50
2015,11,16,10,46,24.00
2015,11,16,10,47,16.70
2015,11,16,10,48,21.30
2015,11,16,10,49,21.20
2015,11,16,10,50,15.90
2015,11,16,10,51,19.80
2015,11,16,10,52,21.80
2015,11,16,10,53,15.00
2015,11,16,10,54,15.70
2015,11,16,10,55,15.00
2015,11,16,10,56,9.50
2015,11,16,10,57,24.50
2015,11,16,10,58,18.40
2015,11,16,10,59,19.10
2015,11,16,11,00,20.40
2015,11,16,11,01,16.80
2015,11,16,11,02,15.60
2015,11,16,11,03,18.70
2015,11,16,11,04,17.30
2015,11,16,11,05,16.80
2015,11,16,11,06,22.70
2015,11,16,11,07,23.20
2015,11,16,11,08,21.90
2015,11,16,11,09,26.90
2015,11,16,11,10,15.00
2015,11,16,11,11,18.50
2015,11,16,11,12,15.60
2015,11,16,11,13,14.90
2015,11,16,11,14,12.90
2015,11,16,11,15,24.70
2015,11,16,11,16,24.00
2015,11,16,11,17,18.20
2015,11,16,11,18,19.40
2015,11,16,11,19,19.20
2015,11,16,11,20,10.10
2015,11,16,11,21,13.60
2015,11,16,11,22,15.90
2015,11,16,11,23,19.10
2015,11,16,11,24,23.80
2015,11,16,11,25,25.10
2015,11,16,11,26,22.30
2015,11,16,11,27,24.20
2015,11,16,11,28,9.50
2015,11,16,11,29,16.20
2015,11,16,11,30,20.80
2015,11,16,11,31,19.40
2015,11,16,11,32,24.80
2015,11,16,11,33,24.70
2015,11,16,11,34,26.40
2015,11,16,11,35,20.20
2015,11,16,11,36,21.70
2015,11,16,11,37,18.60
2015,11,16,11,38,17.20
2015,11,16,11,39,20.80
2015,11,16,11,40,20.30
2015,11,16,11,41,21.20
2015,11,16,11,42,19.70
2015,11,16,11,43,22.70
2015,11,16,11,44,20.90
2015,11,16,11,45,11.90
2015,11,16,11,46,14.30
2015,11,16,11,47,18.30
2015,11,16,11,48,25.90
2015,11,16,11,49,28.90
2015,11,16,11,50,21.20
2015,11,16,11,51,28.50
2015,11,16,11,52,30.30
2015,11,16,11,53,26.60
2015,11,16,11,54,17.20
2015,11,16,11,55,29.30
2015,11,16,11,56,27.50
2015,11,16,11,57,29.20
2015,11,16,11,58,22.70
2015,11,16,11,59,26.20
2015,11,16,12,00,25.90
2015,11,16,12,01,26.90
2015,11,16,12,02,23.80
2015,11,16,12,03,24.90
2015,11,16,12,04,26.60
2015,11,16,12,05,34.00
2015,11,16,12,06,28.20
2015,11,16,12,07,29.70
2015,11,16,12,08,25.20
2015,11,16,12,09,18.80
2015,11,16,12,10,24.10
2015,11,16,12,11,27.40
2015,11,16,12,12,27.90
2015,11,16,12,13,26.30
2015,11,16,12,14,21.20
2015,11,16,12,15,30.30
2015,11,16,12,16,19.00
2015,11,16,12,17,31.20
2015,11,16,12,18,31.60
2015,11,16,12,19,31.70
2015,11,16,12,20,28.10
2015,11,16,12,21,22.00
2015,11,16,12,22,31.30
2015,11,16,12,23,24.60
2015,11,16,12,24,30.90
2015,11,16,12,25,33.60
2015,11,16,12,26,30.60
2015,11,16,12,27,21.20
2015,11,16,12,28,21.90
2015,11,16,12,29,19.20
2015,11,16,12,30,28.10
2015,11,16,12,31,26.20
2015,11,16,12,32,20.40
2015,11,16,12,33,18.80
2015,11,16,12,34,25.20
2015,11,16,12,35,33.30
2015,11,16,12,36,22.00
2015,11,16,12,37,27.70
2015,11,16,12,38,24.30
2015,11,16,12,39,25.60
2015,11,16,12,40,26.50
2015,11,16,12,41,25.40
2015,11,16,12,42,23.50
2015,11,16,12,43,26.10
2015,11,16,12,44,28.30
2015,11,16,12,45,23.80
2015,11,16,12,46,28.70
2015,11,16,12,47,16.40
2015,11,16,12,48,21.90
2015,11,16,12,49,24.60
2015,11,16,12,50,23.10
2015,11,16,12,51,20.60
2015,11,16,12,52,22.50
2015,11,16,12,53,35.70
2015,11,16,12,54,20.90
2015,11,16,12,55,37.70
2015,11,16,12,56,27.30
2015,11,16,12,57,30.50
2015,11,16,12,58,18.50
2015,11,16,12,59,20.90
2015,11,16,13,00,36.20
2015,11,16,13,01,21.70
2015,11,16,13,02,30.50
2015,11,16,13,03,31.80
2015,11,16,13,04,22.70
2015,11,16,13,05,25.60
2015,11,16,13,06,22.40
2015,11,16,13,07,26.50
2015,11,16,13,08,24.30
2015,11,16,13,09,26.50
2015,11,16,13,10,32.00
2015,11,16,13,11,20.10
2015,11,16,13,12,23.20
2015,11,16,13,13,20.60
2015,11,16,13,14,28.10
2015,11,16,13,15,26.80
2015,11,16,13,16,23.50
2015,11,16,13,17,29.30
2015,11,16,13,18,21.90
2015,11,16,13,19,17.10
2015,11,16,13,20,19.40
2015,11,16,13,21,31.60
2015,11,16,13,22,26.20
2015,11,16,13,23,25.40
2015,11,16,13,24,28.70
2015,11,16,13,25,22.30
2015,11,16,13,26,20.00
2015,11,16,13,27,33.50
2015,11,16,13,28,28.10
2015,11,16,13,29,28.30
2015,11,16,13,30,19.30
2015,11,16,13,31,18.40
2015,11,16,13,32,21.60
2015,11,16,13,33,23.50
2015,11,16,13,34,21.40
2015,11,16,13,35,24.20
2015,11,16,13,36,24.60
2015,11,16,13,37,23.40
2015,11,16,13,38,32.40
2015,11,16,13,39,33.90
2015,11,16,13,40,28.40
2015,11,16,13,41,40.10
2015,11,16,13,42,32.50
2015,11,16,13,43,21.30
2015,11,16,13,44,28.00
2015,11,16,13,45,30.20
2015,11,16,13,46,23.80
2015,11,16,13,47,17.30
2015,11,16,13,48,22.90
2015,11,16,13,49,29.20
2015,11,16,13,50,23.00
2015,11,16,13,51,28.90
2015,11,16,13,52,21.40
2015,11,16,13,53,19.70
2015,11,16,13,54,23.40
2015,11,16,13,55,24.50
2015,11,16,13,56,23.10
2015,11,16,13,57,25.60
2015,11,16,13,58,28.60
2015,11,16,13,59,18.10
2015,11,16,14,00,15.90
2015,11,16,14,01,17.40
2015,11,16,14,02,21.00
2015,11,16,14,03,25.00
2015,11,16,14,04,24.40
2015,11,16,14,05,21.20
2015,11,16,14,06,24.10
2015,11,16,14,07,21.80
2015,11,16,14,08,20.50
2015,11,16,14,09,22.60
2015,11,16,14,10,25.50
2015,11,16,14,11,32.20
2015,11,16,14,12,18.70
2015,11,16,14,13,18.60
2015,11,16,14,14,23.70
2015,11,16,14,15,28.30
2015,11,16,14,16,22.30
2015,11,16,14,17,17.30
2015,11,16,14,18,21.30
2015,11,16,14,19,16.90
2015,11,16,14,20,18.60
2015,11,16,14,21,18.30
2015,11,16,14,22,14.80
2015,11,16,14,23,21.80
2015,11,16,14,24,22.60
2015,11,16,14,25,17.70
2015,11,16,14,26,27.90
2015,11,16,14,27,20.90
2015,11,16,14,28,24.30
2015,11,16,14,29,15.80
2015,11,16,14,30,20.60
2015,11,16,14,31,19.40
2015,11,16,14,32,28.10
2015,11,16,14,33,23.10
2015,11,16,14,34,23.10
2015,11,16,14,35,21.60
2015,11,16,14,36,23.60
2015,11,16,14,37,28.80
2015,11,16,14,38,15.20
2015,11,16,14,39,29.30
2015,11,16,14,40,22.10
2015,11,16,14,41,25.60
2015,11,16,14,42,14.40
2015,11,16,14,43,27.00
2015,11,16,14,44,26.20
2015,11,16,14,45,32.10
2015,11,16,14,46,18.50
2015,11,16,14,47,23.00
2015,11,16,14,48,7.80
2015,11,16,14,49,30.40
2015,11,16,14,50,27.70
2015,11,16,14,51,27.70
2015,11,16,14,52,28.00
2015,11,16,14,53,24.60
2015,11,16,14,54,30.80
2015,11,16,14,55,24.40
2015,11,16,14,56,24.00
2015,11,16,14,57,29.60
2015,11,16,14,58,30.30
2015,11,16,14,59,24.70
2015,11,16,15,00,27.10
2015,11,16,15,01,22.10
2015,11,16,15,02,33.70
2015,11,16,15,03,29.40
2015,11,16,15,04,31.20
2015,11,16,15,05,31.30
2015,11,16,15,06,26.20
2015,11,16,15,07,18.80
2015,11,16,15,08,26.10
2015,11,16,15,09,26.80
2015,11,16,15,10,24.50
2015,11,16,15,11,20.00
2015,11,16,15,12,28.50
2015,11,16,15,13,28.40
2015,11,16,15,14,28.90
2015,11,16,15,15,27.50
2015,11,16,15,16,28.20
2015,11,16,15,17,23.10
2015,11,16,15,18,28.00
2015,11,16,15,19,26.60
2015,11,16,15,20,20.10
2015,11,16,15,21,31.00
2015,11,16,15,22,23.00
2015,11,16,15,23,20.40
2015,11,16,15,24,25.70
2015,11,16,15,25,24.70
2015,11,16,15,26,29.10
2015,11,16,15,27,26.20
2015,11,16,15,28,26.10
2015,11,16,15,29,19.60
2015,11,16,15,30,25.00
2015,11,16,15,31,24.70
2015,11,16,15,32,20.40
2015,11,16,15,33,23.20
2015,11,16,15,34,23.10
2015,11,16,15,35,32.20
2015,11,16,15,36,28.40
2015,11,16,15,37,27.30
2015,11,16,15,38,16.10
2015,11,16,15,39,20.90
2015,11,16,15,40,28.80
2015,11,16,15,41,25.00
2015,11,16,15,42,16.90
2015,11,16,15,43,24.80
2015,11,16,15,44,20.10
2015,11,16,15,45,18.10
2015,11,16,15,46,17.60
2015,11,16,15,47,17.20
2015,11,16,15,48,16.30
2015,11,16,15,49,14.40
2015,11,16,15,50,13.40
2015,11,16,15,51,13.50
2015,11,16,15,52,13.60
2015,11,16,15,53,16.70
2015,11,16,15,54,17.80
2015,11,16,15,55,15.20
2015,11,16,15,56,16.80
2015,11,16,15,57,17.20
2015,11,16,15,58,19.40
2015,11,16,15,59,23.00
2015,11,16,16,00,18.50
2015,11,16,16,01,23.20
2015,11,16,16,02,12.40
2015,11,16,16,03,11.90
2015,11,16,16,04,14.90
2015,11,16,16,05,11.90
2015,11,16,16,06,12.60
2015,11,16,16,07,20.70
2015,11,16,16,08,16.90
2015,11,16,16,09,17.20
2015,11,16,16,10,12.70
2015,11,16,16,11,16.40
2015,11,16,16,12,8.50
2015,11,16,16,13,11.30
2015,11,16,16,14,10.00
2015,11,16,16,15,11.80
2015,11,16,16,16,16.70
2015,11,16,16,17,19.60
2015,11,16,16,18,9.90
2015,11,16,16,19,3.90
2015,11,16,16,20,8.50
2015,11,16,16,21,16.10
2015,11,16,16,22,6.30
2015,11,16,16,23,12.80
2015,11,16,16,24,14.70
2015,11,16,16,25,10.20
2015,11,16,16,26,6.90
2015,11,16,16,27,14.10
2015,11,16,16,28,17.90
2015,11,16,16,29,13.20
2015,11,16,16,30,14.90
2015,11,16,16,31,13.60
2015,11,16,16,32,13.30
2015,11,16,16,33,11.00
2015,11,16,16,34,11.10
2015,11,16,16,35,14.50
2015,11,16,16,36,16.30
2015,11,16,16,37,16.20
2015,11,16,16,38,13.50
2015,11,16,16,39,17.20
2015,11,16,16,40,14.40
2015,11,16,16,41,13.40
2015,11,16,16,42,6.50
2015,11,16,16,43,13.10
2015,11,16,16,44,10.80
2015,11,16,16,45,11.10
2015,11,16,16,46,12.60
2015,11,16,16,47,8.90
2015,11,16,16,48,13.90
2015,11,16,16,49,13.60
2015,11,16,16,50,9.00
2015,11,16,16,51,16.80
2015,11,16,16,52,14.70
2015,11,16,16,53,11.30
2015,11,16,16,54,9.80
2015,11,16,16,55,18.50
2015,11,16,16,56,23.10
2015,11,16,16,57,18.10
2015,11,16,16,58,20.00
2015,11,16,16,59,7.50
2015,11,16,17,00,13.40
2015,11,16,17,01,10.60
2015,11,16,17,02,10.80
2015,11,16,17,03,11.10
2015,11,16,17,04,13.40
2015,11,16,17,05,22.00
2015,11,16,17,06,12.10
2015,11,16,17,07,15.90
2015,11,16,17,08,12.70
2015,11,16,17,09,8.00
2015,11,16,17,10,5.10
2015,11,16,17,11,6.00
2015,11,16,17,12,8.80
2015,11,16,17,13,11.70
2015,11,16,17,14,8.20
2015,11,16,17,15,15.80
2015,11,16,17,16,11.70
2015,11,16,17,17,9.40
2015,11,16,17,18,12.00
2015,11,16,17,19,16.70
2015,11,16,17,20,16.30
2015,11,16,17,21,17.60
2015,11,16,17,22,15.70
2015,11,16,17,23,26.00
2015,11,16,17,24,21.00
2015,11,16,17,25,18.60
2015,11,16,17,26,22.80
2015,11,16,17,27,20.10
2015,11,16,17,28,15.80
2015,11,16,17,29,13.60
2015,11,16,17,30,15.60
2015,11,16,17,31,14.50
2015,11,16,17,32,11.30
2015,11,16,17,33,13.10
2015,11,16,17,34,13.90
2015,11,16,17,35,10.70
2015,11,16,17,36,14.20
2015,11,16,17,37,15.40
2015,11,16,17,38,13.50
2015,11,16,17,39,6.30
2015,11,16,17,40,5.30